User: anonymous   Login
Location: Theydon Bois
(51.6750°N, 0.1050°E)
Time: 04:10:47
(UTC+01:00)
Language:

Cosmos 1371 Rocket - Orbit

View from above orbital plane
View from above orbital plane
View from above satellite
View from above satellite

Ground track
Ground track

The orbit data is extracted from the following two-line orbital elements,

1 13242U 82051B   18174.63144312 +.00000063 +00000-0 +30700-4 0  9996
2 13242 074.0443 031.4132 0024465 143.1141 240.9100 14.35906000886642
Epoch (UTC): 23 June 2018 15:09:16
Eccentricity: 0.0024465
inclination: 74.0443°
perigee height: 754 km
apogee height: 789 km
right ascension of ascending node: 31.4132°
argument of perigee: 143.1141°
revolutions per day: 14.35906000
mean anomaly at epoch: 240.9100°
orbit number at epoch: 88664

The dashed part of the orbit path shows where the satellite is in the earth's shadow,  

DLR